Location: Bonaustraße
(48.4603°N, 11.9280°E)
Time: 06:03:49
(UTC+01:00)

X-37B - Pass Details

Date: 25 January 2021
Orbit: 383 x 391 km, 45.0° (Epoch: 27 February)

Event Time Altitude Azimuth Distance (km) Brightness Sun altitude
Rises 18:27:21 0° 259° (W) 2,271 6.5 -14.4°
Reaches altitude 10° 18:29:27 10° 253° (WSW) 1,417 4.8 -14.7°
Maximum altitude 18:32:31 45° 179° (S) 543 1.3 -15.2°
Enters shadow 18:33:47 28° 124° (SE) 766 1.7 -15.4°
